When you browse on this site, cookies collect data to enhance your experience and personalize the content and advertising you see.
Visit our Privacy Policy to learn more. By continuing to use the site, you agree to this use of cookies and data.
  • In Belgien
  • Länderverzeichnis
  • Für 7 Tage
  • Wassertemperatur
  • Satellitenkarten
  • Wetterkarte
  • Widgets
  • user-avatar
    Anmelden

    Stündliche Wetter Sabaudia

    Heute, 19 Februar, Dienstag

    Zeit Temperatur Niederschläge Wind Luftdruck Luftfeuchtigkeit
    00:00 +2°C° 0 mm 3 m/S 740 mmHg 91%
    01:00 +2°C° 0 mm 3 m/S 740 mmHg 92%
    02:00 +1°C° 0 mm 3 m/S 740 mmHg 93%
    03:00 +1°C° 0 mm 3 m/S 739 mmHg 93%
    04:00 +2°C° 0 mm 2 m/S 739 mmHg 93%
    05:00 +1°C° 0 mm 2 m/S 739 mmHg 93%
    06:00 0°C° 0 mm 3 m/S 739 mmHg 91%
    07:00 0°C° 0 mm 3 m/S 738 mmHg 90%
    08:00 0°C° 0 mm 3 m/S 738 mmHg 89%
    09:00 +1°C° 0 mm 3 m/S 738 mmHg 83%
    10:00 +3°C° 0 mm 3 m/S 738 mmHg 76%
    11:00 +5°C° 0 mm 4 m/S 738 mmHg 70%
    12:00 +6°C° 0 mm 4 m/S 737 mmHg 66%
    13:00 +7°C° 0 mm 4 m/S 737 mmHg 62%
    14:00 +8°C° 0 mm 4 m/S 737 mmHg 59%
    15:00 +8°C° 0 mm 4 m/S 736 mmHg 61%
    16:00 +8°C° 0 mm 4 m/S 736 mmHg 62%
    17:00 +8°C° 0 mm 3 m/S 736 mmHg 64%
    18:00 +6°C° 0 mm 4 m/S 736 mmHg 69%
    19:00 +5°C° 0 mm 4 m/S 736 mmHg 74%
    20:00 +4°C° 0 mm 4 m/S 735 mmHg 79%
    21:00 +3°C° 0 mm 5 m/S 735 mmHg 80%
    22:00 +2°C° 0 mm 5 m/S 735 mmHg 81%
    23:00 +2°C° 0 mm 5 m/S 735 mmHg 83%

    Morgen, 20 Februar, Mittwoch

    Zeit Temperatur Niederschläge Wind Luftdruck Luftfeuchtigkeit
    00:00 +2°C° 0 mm 5 m/S 735 mmHg 84%
    01:00 +2°C° 0 mm 5 m/S 736 mmHg 85%
    02:00 +1°C° 0 mm 5 m/S 736 mmHg 86%
    03:00 +1°C° 0.4 mm 5 m/S 735 mmHg 87%
    04:00 +2°C° 0.4 mm 5 m/S 735 mmHg 88%
    05:00 +2°C° 0.4 mm 5 m/S 735 mmHg 89%
    06:00 +1°C° 0.1 mm 5 m/S 735 mmHg 90%
    07:00 +1°C° 0.1 mm 5 m/S 736 mmHg 91%
    08:00 +1°C° 0.1 mm 5 m/S 736 mmHg 92%
    09:00 +1°C° 0.1 mm 5 m/S 736 mmHg 89%
    10:00 +2°C° 0.1 mm 6 m/S 736 mmHg 86%
    11:00 +2°C° 0.1 mm 6 m/S 737 mmHg 82%
    12:00 +3°C° 0.1 mm 6 m/S 737 mmHg 78%
    13:00 +3°C° 0.1 mm 7 m/S 737 mmHg 73%
    14:00 +3°C° 0.1 mm 7 m/S 737 mmHg 68%
    15:00 +3°C° 0.1 mm 7 m/S 737 mmHg 68%
    16:00 +3°C° 0.1 mm 6 m/S 737 mmHg 69%
    17:00 +3°C° 0.1 mm 6 m/S 738 mmHg 69%
    18:00 +2°C° 0 mm 6 m/S 738 mmHg 72%
    19:00 +2°C° 0 mm 5 m/S 738 mmHg 74%
    20:00 +1°C° 0 mm 5 m/S 738 mmHg 77%
    21:00 +1°C° 0 mm 5 m/S 739 mmHg 77%
    22:00 +1°C° 0 mm 5 m/S 739 mmHg 78%
    23:00 +1°C° 0 mm 5 m/S 739 mmHg 78%

    übermorgen, 21 Februar, Donnerstag

    Zeit Temperatur Niederschläge Wind Luftdruck Luftfeuchtigkeit
    00:00 +1°C° 0 mm 5 m/S 739 mmHg 78%
    01:00 +1°C° 0 mm 5 m/S 739 mmHg 78%
    02:00 +1°C° 0 mm 5 m/S 739 mmHg 78%
    03:00 +1°C° 0 mm 5 m/S 739 mmHg 80%
    04:00 +1°C° 0 mm 5 m/S 739 mmHg 81%
    05:00 +1°C° 0 mm 5 m/S 739 mmHg 82%
    06:00 +1°C° 0 mm 5 m/S 739 mmHg 85%
    07:00 +1°C° 0 mm 5 m/S 739 mmHg 89%
    08:00 +1°C° 0 mm 5 m/S 739 mmHg 92%
    09:00 +2°C° 0.1 mm 5 m/S 739 mmHg 87%
    10:00 +3°C° 0.1 mm 6 m/S 739 mmHg 81%
    11:00 +4°C° 0.1 mm 6 m/S 739 mmHg 76%
    12:00 +4°C° 0.3 mm 6 m/S 739 mmHg 77%
    13:00 +3°C° 0.3 mm 6 m/S 739 mmHg 77%
    14:00 +3°C° 0.3 mm 6 m/S 739 mmHg 78%
    15:00 +3°C° 0.2 mm 6 m/S 738 mmHg 81%
    16:00 +3°C° 0.2 mm 6 m/S 738 mmHg 83%
    17:00 +3°C° 0.2 mm 6 m/S 738 mmHg 85%
    18:00 +3°C° 1.1 mm 6 m/S 737 mmHg 87%
    19:00 +3°C° 1.1 mm 5 m/S 737 mmHg 89%
    20:00 +3°C° 1.1 mm 5 m/S 737 mmHg 91%
    21:00 +3°C° 1 mm 5 m/S 738 mmHg 92%
    22:00 +3°C° 1 mm 5 m/S 738 mmHg 93%
    23:00 +4°C° 1 mm 4 m/S 738 mmHg 94%

    22 Februar, Freitag

    Zeit Temperatur Niederschläge Wind Luftdruck Luftfeuchtigkeit
    00:00 +4°C° 0.5 mm 4 m/S 738 mmHg 94%
    01:00 +4°C° 0.5 mm 4 m/S 738 mmHg 94%
    02:00 +4°C° 0.5 mm 4 m/S 739 mmHg 95%
    03:00 +1°C° 0.5 mm 5 m/S 739 mmHg 92%
    04:00 -2°C° 0.5 mm 6 m/S 740 mmHg 89%
    05:00 -3°C° 0.5 mm 6 m/S 740 mmHg 85%
    06:00 -4°C° 0 mm 7 m/S 741 mmHg 81%
    07:00 -4°C° 0 mm 7 m/S 742 mmHg 77%
    08:00 -6°C° 0 mm 7 m/S 744 mmHg 73%
    09:00 -5°C° 0 mm 6 m/S 745 mmHg 69%
    10:00 -5°C° 0 mm 6 m/S 746 mmHg 65%
    11:00 -5°C° 0 mm 6 m/S 747 mmHg 61%
    12:00 -5°C° 0 mm 6 m/S 748 mmHg 60%
    13:00 -4°C° 0 mm 6 m/S 748 mmHg 58%
    14:00 -4°C° 0 mm 6 m/S 749 mmHg 56%
    15:00 -5°C° 0 mm 6 m/S 749 mmHg 54%
    16:00 -5°C° 0 mm 6 m/S 750 mmHg 53%
    17:00 -5°C° 0 mm 6 m/S 750 mmHg 51%
    18:00 -6°C° 0 mm 5 m/S 751 mmHg 52%
    19:00 -6°C° 0 mm 5 m/S 752 mmHg 52%
    20:00 -7°C° 0 mm 4 m/S 752 mmHg 52%
    21:00 -5°C° 0 mm 4 m/S 753 mmHg 51%
    22:00 -5°C° 0 mm 4 m/S 753 mmHg 50%
    23:00 -5°C° 0 mm 4 m/S 754 mmHg 48%

    23 Februar, Samstag

    Zeit Temperatur Niederschläge Wind Luftdruck Luftfeuchtigkeit
    00:00 -5°C° 0 mm 4 m/S 754 mmHg 47%
    01:00 -5°C° 0 mm 3 m/S 754 mmHg 46%
    02:00 -5°C° 0 mm 3 m/S 754 mmHg 45%
    03:00 -6°C° 0 mm 3 m/S 754 mmHg 45%
    04:00 -6°C° 0 mm 3 m/S 754 mmHg 46%
    05:00 -5°C° 0 mm 2 m/S 754 mmHg 46%
    06:00 -5°C° 0 mm 2 m/S 754 mmHg 46%
    07:00 -5°C° 0 mm 2 m/S 754 mmHg 45%
    08:00 -4°C° 0 mm 2 m/S 754 mmHg 44%
    09:00 -4°C° 0 mm 2 m/S 754 mmHg 40%
    10:00 -3°C° 0 mm 2 m/S 753 mmHg 35%
    11:00 -2°C° 0 mm 2 m/S 753 mmHg 30%
    12:00 -2°C° 0 mm 3 m/S 753 mmHg 31%
    13:00 -2°C° 0 mm 3 m/S 752 mmHg 33%
    14:00 -3°C° 0 mm 4 m/S 752 mmHg 34%
    15:00 -3°C° 0 mm 4 m/S 751 mmHg 41%
    16:00 -3°C° 0 mm 4 m/S 751 mmHg 47%
    17:00 -4°C° 0 mm 4 m/S 750 mmHg 53%
    18:00 -4°C° 0.1 mm 3 m/S 750 mmHg 54%
    19:00 -4°C° 0.1 mm 3 m/S 749 mmHg 54%
    20:00 -4°C° 0.1 mm 3 m/S 749 mmHg 54%
    21:00 -2°C° 0 mm 3 m/S 749 mmHg 53%
    22:00 -2°C° 0 mm 2 m/S 749 mmHg 52%
    23:00 -2°C° 0 mm 2 m/S 749 mmHg 50%

    24 Februar, Sonntag

    Zeit Temperatur Niederschläge Wind Luftdruck Luftfeuchtigkeit
    00:00 -2°C° 0 mm 2 m/S 749 mmHg 54%
    01:00 -3°C° 0 mm 2 m/S 749 mmHg 58%
    02:00 -3°C° 0 mm 2 m/S 749 mmHg 62%
    03:00 -3°C° 0 mm 2 m/S 748 mmHg 66%
    04:00 -1°C° 0 mm 1 m/S 748 mmHg 70%
    05:00 -1°C° 0 mm 1 m/S 748 mmHg 73%
    06:00 -1°C° 0 mm 1 m/S 748 mmHg 76%
    07:00 -3°C° 0 mm 2 m/S 748 mmHg 78%
    08:00 -3°C° 0 mm 2 m/S 748 mmHg 80%
    09:00 -2°C° 0 mm 2 m/S 748 mmHg 79%
    10:00 +1°C° 0 mm 2 m/S 748 mmHg 77%
    11:00 +1°C° 0 mm 3 m/S 748 mmHg 76%
    12:00 +1°C° 0 mm 3 m/S 748 mmHg 80%
    13:00 +1°C° 0 mm 3 m/S 747 mmHg 84%
    14:00 +1°C° 0 mm 3 m/S 747 mmHg 88%
    15:00 +1°C° 0 mm 3 m/S 746 mmHg 89%
    16:00 +1°C° 0 mm 3 m/S 746 mmHg 91%
    17:00 +2°C° 0 mm 3 m/S 745 mmHg 93%
    18:00 +1°C° 0 mm 3 m/S 745 mmHg 93%
    19:00 +1°C° 0 mm 3 m/S 744 mmHg 94%
    20:00 0°C° 0 mm 3 m/S 744 mmHg 95%
    21:00 -1°C° 0 mm 4 m/S 743 mmHg 95%
    22:00 -1°C° 0 mm 4 m/S 743 mmHg 95%
    23:00 -2°C° 0 mm 4 m/S 742 mmHg 95%
    Mehr zeigen